"2022-02-15 00:01:00",2810110,4.817334,247.1265,7.926312,0.3500946,5.41,0,3.694,243.3213,8.790792,0.7302493,4.9,0,-999,0,5.8,88.6,5.916,5.926,5.087,0.385,0,6.59,13.57,5.825,100.7855,3.363,3.363,3.361,100,0,0,0,307.9,182.3,182.3
"2022-02-15 00:02:00",2810111,5.141333,256.0871,7.785129,0.5528336,5.88,0,3.896,254.3336,9.605379,0.6515397,5.02,0,-999,0,5.8,88.4,5.944,5.963,4.558,0.612,0,6.595,13.58,5.888,100.7825,3.363,3.363,3.363,100,0,0,0,307.9,182.3,182.3
"2022-02-15 00:03:00",2810112,4.134667,256.7402,7.03984,0.648484,5.18,0,3.32,253.9365,5.68193,0.3928019,3.73,0,-999,0,5.8,88.9,5.94,5.965,3.783,0.388,0,6.602,13.56,4.513,100.7832,3.361,3.363,3.361,100,0,0,0,307.9,182.3,182.3
"2022-02-15 00:04:00",2810113,3.524,251.1337,4.046397,0.3802244,4.49,0,2.734,248.8057,5.111273,0.4177049,3.43,0,-999,0,5.813,89.1,5.943,5.956,3.525,0.238,0,6.611,13.58,4.138,100.7909,3.361,3.362,3.359,100,0,0,0,307.9,182.3,182.3
"2022-02-15 00:05:00",2810114,3.896,245.9344,7.465987,0.7424626,5.18,0,3.02,247.7292,6.014438,0.4871688,3.79,0,-999,0,5.8,89.1,5.94,5.947,4.104,0.57,0,6.613,13.57,5.138,100.7997,3.363,3.363,3.36,100,0,0,0,307.9,182.3,182.3
"2022-02-15 00:06:00",2810115,4.702001,243.9386,8.109784,0.4631803,5.4,0,3.835333,238.4576,7.64994,0.475589,5.17,0,-999,0,5.8,88.9,5.942,5.942,4.4,0.447,0,6.613,13.57,5.2,100.7954,3.363,3.363,3.36,100,0,0,0,307.9,182.3,182.3
"2022-02-15 00:07:00",2810116,4.539333,242.6099,8.200274,0.7142125,6.06,0,3.154,244.5907,9.140635,0.564208,3.99,0,-999,0,5.8,88.5,5.938,5.942,4.25,0.563,0,6.613,13.56,5.45,100.7969,3.359,3.362,3.359,100,0,0,0,307.9,182.3,182.3
"2022-02-15 00:08:00",2810117,4.892667,250.4025,3.477985,0.7786267,5.9,0,3.647334,249.1413,7.681217,0.8291319,4.92,0,-999,0,5.8,88.7,5.937,5.944,5.221,0.533,0,6.613,13.57,5.95,100.7941,3.361,3.361,3.359,100,0,0,0,307.9,182.3,182.3
"2022-02-15 00:09:00",2810118,4.570667,249.2694,6.494199,0.5691685,5.3,0,3.612,248.5913,6.685689,0.5875736,4.78,0,-999,0,5.813,89,5.938,5.945,4.55,0.248,0,6.625,13.57,4.95,100.7936,3.36,3.363,3.359,100,0,0,0,307.9,182.3,182.3
"2022-02-15 00:10:00",2810119,4.296667,255.4765,6.535613,0.4182131,4.89,0,3.470666,250.2677,9.844676,0.4861751,4.65,0,-999,0,5.8,88.9,5.938,5.949,4.583,0.397,0,6.635,13.58,5.45,100.7961,3.362,3.362,3.36,100,0,0,0,307.9,182.3,182.3
"2022-02-15 00:11:00",2810120,4.37,252.7395,6.210113,0.520282,5.68,0,3.119334,255.8979,12.77694,0.8000289,4.63,0,-999,0,5.833,88.9,5.939,5.959,4.721,0.779,0,6.635,13.58,6.013,100.795,3.361,3.362,3.36,100,0,0,0,307.9,182.3,182.3
"2022-02-15 00:12:00",2810121,4.761334,249.4061,7.542684,0.9523156,6.39,0,3.566667,250.1003,9.587344,0.5210586,4.62,0,-999,0,5.833,89.4,5.938,5.956,4.171,0.55,0,6.635,13.57,5.388,100.801,3.359,3.361,3.359,100,0,0,0,307.9,182.3,182.3
"2022-02-15 00:13:00",2810122,4.33,251.4655,4.950333,0.6219324,5.34,0,3.618,250.8007,5.680074,0.3966728,4.34,0,-999,0,5.8,89.1,5.938,5.956,4.158,0.398,0,6.649,13.58,4.888,100.8003,3.359,3.36,3.359,100,0,0,0,307.9,182.3,182.3
"2022-02-15 00:14:00",2810123,4.127333,257.2663,4.945183,0.3590072,4.95,0,2.765333,255.8684,5.874005,0.363554,3.65,0,-999,0,5.8,89.1,5.94,5.95,3.925,0.209,0,6.654,13.58,4.45,100.7999,3.36,3.36,3.359,100,0,0,0,307.9,182.3,182.3
"2022-02-15 00:15:00",2810124,3.433333,253.3297,7.549254,0.345305,3.96,0,2.959333,255.7662,8.309458,0.4604848,3.72,0,-999,0,5.813,89.3,5.938,5.947,3.454,0.288,0,6.656,13.58,4.138,100.7987,3.359,3.361,3.359,100,0,0,0,307.9,182.3,182.3
"2022-02-15 00:16:00",2810125,3.45,257.7348,6.334484,0.4821618,4.75,0,2.489333,257.7943,6.770634,0.643485,3.99,0,-999,0,5.8,89.4,5.931,5.933,3.396,0.532,0,6.656,13.58,4.45,100.8049,3.359,3.359,3.358,100,0,0,0,307.9,182.3,182.3
"2022-02-15 00:17:00",2810126,3.644667,259.9238,8.068058,0.6700534,4.69,0,3.085333,262.9642,12.04978,0.462513,4.13,0,-999,0,5.8,89.5,5.912,5.912,3.675,0.393,0,6.656,13.58,4.325,100.8038,3.359,3.36,3.359,100,0,0,0,307.9,182.3,182.3
"2022-02-15 00:18:00",2810127,3.602,255.2806,7.353957,0.2974155,4.12,0,2.704,260.9436,6.662318,0.2802094,3.27,0,-999,0,5.8,89.1,5.924,5.929,3.254,0.228,0,6.657,13.58,3.7,100.8024,3.359,3.36,3.359,100,0,0,0,307.9,182.3,182.3
"2022-02-15 00:19:00",2810128,3.416667,254.003,4.977602,0.2815118,3.93,0,1.918,250.7242,7.376046,0.4744569,2.88,0,-999,0,5.8,89,5.896,5.902,3.233,0.276,0,6.675,13.58,3.638,100.8049,3.359,3.361,3.359,100,0,0,0,307.9,182.3,182.3
"2022-02-15 00:20:00",2810129,3.551333,256.1337,4.254896,0.2551305,4.11,0,2.14,250.0697,7.080872,0.3649658,2.68,0,-999,0,5.8,89.1,5.864,5.87,3.271,0.265,0,6.678,13.58,3.763,100.8079,3.359,3.36,3.359,100,0,0,0,307.9,182.3,182.3
"2022-02-15 00:21:00",2810130,3.396667,250.2691,6.376821,0.3903275,4.01,0,2.85,249.6378,8.607569,0.5507086,3.68,0,-999,0,5.8,89,5.861,5.867,3.475,0.415,0,6.678,13.58,4.2,100.8137,3.359,3.36,3.358,100,0,0,0,307.9,182.3,182.3
"2022-02-15 00:22:00",2810131,3.380666,252.7945,4.560543,0.2126174,3.87,0,2.64,252.3374,5.698696,0.3592213,3.62,0,-999,0,5.8,88.4,5.864,5.868,3.121,0.248,0,6.687,13.58,3.513,100.8076,3.358,3.359,3.357,100,0,0,0,307.9,182.3,182.3
"2022-02-15 00:23:00",2810132,3.535333,251.2685,6.17858,0.5923048,4.8,0,2.982,251.6664,5.719843,0.526665,3.96,0,-999,0,5.8,88.5,5.858,5.868,3.875,0.387,0,6.699,13.57,4.45,100.808,3.357,3.359,3.356,100,0,0,0,307.9,182.3,182.3
"2022-02-15 00:24:00",2810133,4.194666,251.1741,8.74034,0.4602878,4.91,0,3.149333,251.8434,8.024005,0.4791029,4.03,0,-999,0,5.8,88.7,5.869,5.862,3.817,0.364,0,6.701,13.57,4.388,100.8107,3.356,3.359,3.356,100,0,0,0,307.9,182.3,182.3
"2022-02-15 00:25:00",2810134,4.290667,255.3947,4.890639,0.4442292,5.09,0,2.754,254.0667,5.245144,0.4660729,3.52,0,-999,0,5.8,88.6,5.888,5.862,4.354,0.515,0,6.701,13.58,5.263,100.8069,3.359,3.359,3.356,100,0,0,0,307.9,182.3,182.3
"2022-02-15 00:26:00",2810135,4.674666,245.1344,6.610417,0.4029866,5.35,0,3.347333,249.4116,9.303223,0.6250276,4.36,0,-999,0,5.8,88.9,5.865,5.859,4.512,0.488,0,6.701,13.58,5.45,100.81,3.359,3.359,3.356,100,0,0,0,307.9,182.3,182.3
"2022-02-15 00:27:00",2810136,4.293333,255.6672,4.554634,0.547974,5.02,0,3.515334,253.7296,5.788775,0.5834252,4.58,0,-999,0,5.8,88.5,5.885,5.862,4.487,0.481,0,6.702,13.57,5.388,100.8086,3.358,3.359,3.357,100,0,0,0,307.9,182.3,182.3
"2022-02-15 00:28:00",2810137,4.760666,249.8705,5.894467,0.4021353,5.54,0,3.136667,253.1566,10.50364,0.6712641,4.68,0,-999,0,5.8,88.5,5.896,5.875,4.583,0.406,0,6.721,13.58,5.513,100.8066,3.358,3.359,3.357,100,0,0,0,307.9,182.3,182.3
"2022-02-15 00:29:00",2810138,4.192,255.8635,4.483497,0.5327438,5.33,0,3.758667,252.8342,9.196494,0.5584844,4.71,0,-999,0,5.8,88.6,5.89,5.863,4.437,0.393,0,6.721,13.57,5.013,100.8136,3.359,3.359,3.356,100,0,0,0,307.9,182.3,182.3
"2022-02-15 00:30:00",2810139,3.994667,262.3397,6.432472,0.6540017,5.18,0,2.86,259.0024,4.978234,0.4564796,4.09,0,-999,0,5.8,88.8,5.892,5.862,3.517,0.467,0,6.721,13.57,4.138,100.8151,3.358,3.359,3.357,100,0,0,0,307.9,182.3,182.3
"2022-02-15 00:31:00",2810140,3.506,251.735,5.090379,0.3940863,4.3,0,2.622,245.413,10.11317,0.2832713,3.24,0,-999,0,5.8,89.3,5.88,5.863,3.417,0.59,0,6.729,13.57,5.138,100.8138,3.356,3.359,3.356,100,0,0,0,307.9,182.3,182.3
"2022-02-15 00:32:00",2810141,3.612,256.5247,11.19753,0.7149844,5.07,0,3.374,253.7356,9.648895,0.4752936,4.52,0,-999,0,5.8,88.9,5.878,5.861,4.263,0.503,0,6.744,13.58,4.888,100.809,3.357,3.358,3.356,100,0,0,0,307.9,182.3,182.3
"2022-02-15 00:33:00",2810142,3.686667,248.1978,4.719565,0.4093193,4.2,0,3.096667,244.8773,5.847053,0.6289744,3.94,0,-999,0,5.8,88.7,5.892,5.857,3.971,0.703,0,6.744,13.58,5.263,100.8099,3.357,3.358,3.356,100,0,0,0,307.9,182.3,182.3
"2022-02-15 00:34:00",2810143,4.341333,247.4747,8.947184,0.8295611,5.55,0,3.313334,243.5858,11.93969,0.7498326,5.23,0,-999,0,5.8,88.4,5.889,5.853,4.042,0.626,0,6.744,13.57,5.45,100.8065,3.356,3.357,3.355,100,0,0,0,307.9,182.3,182.3
"2022-02-15 00:35:00",2810144,4.282667,252.0815,10.00652,0.5227678,5.12,0,3.589333,252.6579,11.16721,0.6146486,4.84,0,-999,0,5.8,88.2,5.898,5.867,4.358,0.431,0,6.744,13.58,5.2,100.8097,3.357,3.358,3.355,100,0,0,0,307.9,182.3,182.3
"2022-02-15 00:36:00",2810145,4.052,251.3369,8.619037,0.4431582,4.91,0,3.512,242.7312,6.494001,0.6775367,4.64,0,-999,0,5.8,88.6,5.906,5.868,4.046,0.437,0,6.744,13.58,4.763,100.8048,3.357,3.358,3.357,100,0,0,0,307.9,182.3,182.3
"2022-02-15 00:37:00",2810146,4.360667,248.3214,5.899985,0.5266303,5.29,0,3.51,249.6063,5.269711,0.9835649,5.27,0,-999,0,5.8,88.6,5.889,5.859,4.446,0.695,0,6.76,13.57,5.7,100.81,3.357,3.359,3.355,100,0,0,0,307.9,182.3,182.3
"2022-02-15 00:38:00",2810147,4.466667,253.4131,6.442368,0.5540237,5.21,0,3.577334,249.7711,10.2117,0.3783555,4.48,0,-999,0,5.8,88.9,5.91,5.871,4.4,0.268,0,6.766,13.58,4.888,100.8129,3.357,3.357,3.357,100,0,0,0,307.9,182.3,182.3
"2022-02-15 00:39:00",2810148,5.074667,260.1324,4.424502,0.4565795,5.83,0,2.923333,256.8065,5.851738,0.400111,3.54,0,-999,0,5.8,88.8,5.907,5.858,4.229,0.297,0,6.766,13.58,4.575,100.8102,3.357,3.358,3.356,100,0,0,0,307.9,182.3,182.3
"2022-02-15 00:40:00",2810149,4.941333,248.08,8.486436,0.5694894,5.61,0,3.009334,244.586,8.603184,0.5519598,3.89,0,-999,0,5.8,88.8,5.884,5.849,4.242,0.499,0,6.766,13.58,5.138,100.8093,3.357,3.357,3.356,100,0,0,0,307.9,182.3,182.3
"2022-02-15 00:41:00",2810150,4.406667,250.337,5.233213,0.483786,5.5,0,2.454667,246.9972,7.217403,0.4375975,3.69,0,-999,0,5.8,88.3,5.881,5.846,4.35,0.659,0,6.772,13.58,5.7,100.811,3.359,3.359,3.357,100,0,0,0,307.9,182.3,182.3
"2022-02-15 00:42:00",2810151,4.693334,247.2672,2.839171,0.6202974,5.78,0,3.879334,248.7364,5.243098,0.5822881,4.64,0,-999,0,5.8,88.4,5.915,5.87,4.554,0.569,0,6.785,13.58,5.763,100.8111,3.358,3.359,3.357,100,0,0,0,307.9,182.3,182.3
"2022-02-15 00:43:00",2810152,4.720666,248.6656,4.540499,0.66177,5.75,0,2.996667,247.926,4.872202,0.5635443,4.13,0,-999,0,5.8,87.9,5.929,5.92,4.329,0.55,0,6.787,13.57,5.388,100.8164,3.355,3.358,3.355,100,0,0,0,307.9,182.3,182.3
"2022-02-15 00:44:00",2810153,5.030667,258.1993,4.927466,0.4992726,5.57,0,3.779333,261.326,7.435925,0.4266219,4.46,0,-999,0,5.8,88,5.918,5.898,4.808,0.354,0,6.787,13.58,5.513,100.8123,3.357,3.359,3.355,100,0,0,0,307.9,182.3,182.3
"2022-02-15 00:45:00",2810154,4.253334,245.2608,6.997585,0.7571585,6.15,0,3.146667,242.6677,7.810989,0.5368136,4.58,0,-999,0,5.8,88.7,5.914,5.865,4.112,0.433,0,6.788,13.57,4.825,100.8183,3.357,3.358,3.355,100,0,0,0,307.9,182.3,182.3
"2022-02-15 00:46:00",2810155,4.507333,250.4702,5.627277,0.6979634,5.45,0,3.496,247.1997,6.283876,0.5189193,4.56,0,-999,0,5.8,88.6,5.905,5.856,4.133,0.79,0,6.805,13.58,5.45,100.818,3.358,3.358,3.356,100,0,0,0,307.9,182.3,182.3
"2022-02-15 00:47:00",2810156,4.878,249.344,6.646322,0.8042902,6.19,0,4.011333,246.6526,9.261741,0.8980116,5.69,0,-999,0,5.8,88.2,5.91,5.877,5.108,0.693,0,6.809,13.58,6.075,100.8202,3.357,3.358,3.356,100,0,0,0,307.9,182.3,182.3
"2022-02-15 00:48:00",2810157,5.55,252.5533,7.940706,0.5869129,6.41,0,4.142667,251.9463,6.59088,0.6136608,5.34,0,-999,0,5.827,87.4,5.955,5.923,5.204,0.551,0,6.809,13.58,6.325,100.8207,3.356,3.357,3.356,100,0,0,0,307.9,182.3,182.3
"2022-02-15 00:49:00",2810158,4.968,253.669,3.55164,0.751569,6.04,0,3.511333,251.5375,10.48775,0.5925862,4.84,0,-999,0,5.893,87.4,5.989,5.93,4.654,0.368,0,6.809,13.57,5.2,100.8231,3.356,3.357,3.355,100,0,0,0,307.9,182.3,182.3
"2022-02-15 00:50:00",2810159,4.193334,252.6672,3.398678,0.5916944,5.37,0,3.279334,251.1391,6.794165,0.3087495,3.88,0,-999,0,5.88,87.7,5.956,5.915,4.167,0.294,0,6.818,13.57,4.825,100.8278,3.355,3.356,3.355,100,0,0,0,307.9,182.3,182.3
"2022-02-15 00:51:00",2810160,4.406667,246.1295,4.268196,0.4408124,5.11,0,3.044667,242.9936,6.426896,0.6397486,4.08,0,-999,0,5.887,88.1,5.941,5.916,4.537,0.407,0,6.832,13.57,5.2,100.8263,3.356,3.356,3.353,100,0,0,0,307.9,182.3,182.3
"2022-02-15 00:52:00",2810161,4.256667,247.9981,5.299296,0.4864932,5.07,0,3.537333,243.4002,6.736494,0.5499996,4.23,0,-999,0,5.807,87.9,5.919,5.906,4.633,0.568,0,6.832,13.57,5.575,100.822,3.355,3.357,3.355,100,0,0,0,307.9,182.3,182.3
"2022-02-15 00:53:00",2810162,4.582666,244.2571,9.538215,0.3298174,5.14,0,3.547334,243.9916,7.147883,0.3739067,4.18,0,-999,0,5.82,87.6,5.926,5.912,4.867,0.404,0,6.832,13.57,5.575,100.8205,3.357,3.357,3.355,100,0,0,0,307.9,182.3,182.3
"2022-02-15 00:54:00",2810163,4.725334,253.0197,9.121985,0.4386474,5.31,0,3.908,248.9986,8.700068,0.2190343,4.3,0,-999,0,5.86,87.5,5.931,5.913,4.529,0.593,0,6.832,13.58,5.513,100.82,3.357,3.357,3.356,100,0,0,0,307.9,182.3,182.3
"2022-02-15 00:55:00",2810164,4.826666,247.9391,4.820331,0.527316,5.72,0,4.024,247.1361,5.48365,0.5494578,5.1,0,-999,0,5.887,87.6,5.955,5.917,4.875,0.374,0,6.832,13.57,5.388,100.8273,3.357,3.357,3.355,100,0,0,0,307.9,182.3,182.3
"2022-02-15 00:56:00",2810165,5.351333,250.3972,4.739088,0.5107754,6.32,0,4.032,250.869,6.107255,0.3968241,5.07,0,-999,0,5.9,87.3,5.986,5.928,5.046,0.487,0,6.832,13.57,5.825,100.8308,3.356,3.357,3.355,100,0,0,0,307.9,182.3,182.3
"2022-02-15 00:57:00",2810166,4.452001,249.6653,4.235344,0.4049724,5.14,0,3.515333,247.803,5.574642,0.4027715,4.27,0,-999,0,5.9,87.2,5.978,5.919,4.979,0.438,0,6.841,13.56,5.95,100.8326,3.355,3.359,3.355,100,0,0,0,307.9,182.3,182.3
"2022-02-15 00:58:00",2810167,5.382,258.6024,6.680083,0.6294675,6.76,0,3.467334,257.0148,8.200977,0.5224234,4.29,0,-999,0,5.887,87.3,5.945,5.912,4.592,0.451,0,6.852,13.57,5.2,100.8302,3.356,3.356,3.355,100,0,0,0,307.9,182.3,182.3
"2022-02-15 00:59:00",2810168,4.581333,239.9278,6.102842,0.4550585,5.36,0,2.925333,240.7297,5.742133,0.298683,3.48,0,-999,0,5.813,87.6,5.912,5.888,4.179,0.412,0,6.852,13.57,4.7,100.8241,3.354,3.357,3.354,100,0,0,0,307.9,182.3,182.3
"2022-02-15 01:00:00",2810169,4.409333,243.0056,5.724305,0.4865315,5.46,0,3.676,245.4734,8.403602,0.4924604,4.56,0,-999,0,5.8,87.1,5.896,5.847,4.771,0.418,0,6.852,13.57,5.513,100.8199,3.355,3.355,3.354,100,0,0,0,307.9,182.3,182.3
"2022-02-15 01:01:00",2810170,3.799334,248.6729,5.065109,0.4327658,4.54,0,3.618667,241.4231,7.435499,0.3400562,4.44,0,-999,0,5.8,86.8,5.888,5.865,3.654,0.396,0,6.852,13.57,4.138,100.8165,3.357,3.357,3.355,100,0,0,0,307.9,182.3,182.3
"2022-02-15 01:02:00",2810171,3.746667,250.8695,5.016859,0.4965704,4.47,0,2.788667,247.3347,3.298751,0.3362512,3.43,0,-999,0,5.8,86.6,5.881,5.842,3.796,0.401,0,6.852,13.57,4.638,100.8217,3.355,3.357,3.355,100,0,0,0,307.9,182.3,182.3
"2022-02-15 01:03:00",2810172,3.663333,244.334,3.89221,0.300858,4.14,0,2.679333,241.1982,6.076481,0.2932226,3.07,0,-999,0,5.8,87,5.845,5.814,3.733,0.206,0,6.852,13.57,4.263,100.8186,3.355,3.357,3.354,100,0,0,0,307.9,182.3,182.3
"2022-02-15 01:04:00",2810173,3.594,241.797,4.81678,0.3262678,4.07,0,2.704666,238.4622,4.907664,0.3089524,3.29,0,-999,0,5.72,87.4,5.772,5.759,3.717,0.358,0,6.852,13.57,4.513,100.8126,3.355,3.357,3.355,100,0,0,0,307.9,182.3,182.3
"2022-02-15 01:05:00",2810174,4.265333,246.2184,6.667331,0.6154225,5.28,0,3.312666,244.854,12.32387,0.5761998,4.59,0,-999,0,5.7,87.2,5.753,5.753,4.35,0.369,0,6.852,13.57,5.075,100.8197,3.357,3.357,3.355,100,0,0,0,307.9,182.3,182.3
"2022-02-15 01:06:00",2810175,4.195333,245.932,5.430659,0.4678869,4.89,0,3.214,245.132,3.878314,0.4874396,3.92,0,-999,0,5.7,87.4,5.741,5.723,4.071,0.36,0,6.852,13.57,4.638,100.8172,3.356,3.358,3.355,100,0,0,0,307.9,182.3,182.3
"2022-02-15 01:07:00",2810176,3.875333,244.0716,5.010148,0.4163631,4.56,0,3.018667,242.1336,5.793048,0.5017153,3.96,0,-999,0,5.687,87.8,5.721,5.704,3.925,0.258,0,6.852,13.57,4.263,100.8178,3.356,3.357,3.355,100,0,0,0,307.9,182.3,182.3
"2022-02-15 01:08:00",2810177,4.026,240.6607,4.766954,0.3243825,4.65,0,3.066,238.058,6.713915,0.4158813,3.91,0,-999,0,5.7,87.6,5.753,5.745,4.267,0.482,0,6.844,13.58,5.45,100.8205,3.356,3.357,3.355,100,0,0,0,307.9,182.3,182.3
"2022-02-15 01:09:00",2810178,4.623334,239.464,5.862176,0.6976885,5.89,0,3.336,236.3983,10.23928,0.5017941,4.31,0,-999,0,5.7,87.5,5.758,5.727,3.996,0.485,0,6.832,13.58,5.013,100.8238,3.357,3.359,3.356,100,0,0,0,307.9,182.3,182.3
"2022-02-15 01:10:00",2810179,3.623333,243.2534,8.391125,0.5624313,4.57,0,3.268667,235.9273,8.860947,0.4423102,3.94,0,-999,0,5.7,87.3,5.762,5.756,3.817,0.389,0,6.832,13.57,4.513,100.8245,3.357,3.357,3.355,100,0,0,0,307.9,182.3,182.3
"2022-02-15 01:11:00",2810180,3.793333,238.3325,5.533418,0.3237626,4.31,0,2.55,241.0572,6.31511,0.6628525,3.83,0,-999,0,5.7,87.5,5.758,5.757,3.638,0.351,0,6.832,13.57,4.2,100.8317,3.359,3.359,3.356,100,0,0,0,307.9,182.3,182.3
"2022-02-15 01:12:00",2810181,3.484,246.0079,5.569391,0.4144683,4.13,0,2.711334,239.796,5.932572,0.4040439,3.58,0,-999,0,5.633,88.2,5.693,5.695,3.425,0.158,0,6.832,13.57,3.763,100.8342,3.359,3.359,3.355,100,0,0,0,307.9,182.3,182.3
"2022-02-15 01:13:00",2810182,3.622667,240.5838,6.042926,0.3762174,4.45,0,2.900667,243.0117,9.904424,0.6321863,4.01,0,-999,0,5.6,88.3,5.699,5.685,3.883,0.465,0,6.832,13.56,4.7,100.8283,3.356,3.359,3.356,100,0,0,0,307.9,182.3,182.3
"2022-02-15 01:14:00",2810183,4.208667,239.2638,4.958295,0.3615866,4.98,0,2.913333,244.1041,12.63573,0.5253655,3.74,0,-999,0,5.6,88.3,5.675,5.673,4.392,0.448,0,6.83,13.58,5.513,100.8281,3.359,3.359,3.355,100,0,0,0,307.9,182.3,182.3
"2022-02-15 01:15:00",2810184,3.828666,236.8601,5.068838,0.3912009,4.44,0,2.753333,235.5318,4.301689,0.3156721,3.44,0,-999,0,5.6,88.1,5.683,5.672,3.488,0.247,0,6.82,13.57,3.95,100.8292,3.359,3.359,3.356,100,0,0,0,307.9,182.3,182.3
"2022-02-15 01:16:00",2810185,3.703333,234.3881,8.670926,0.47369,4.84,0,2.740667,233.7315,6.705193,0.346034,3.54,0,-999,0,5.6,88,5.667,5.66,4,0.431,0,6.809,13.56,4.763,100.8263,3.356,3.359,3.356,100,0,0,0,307.9,182.3,182.3
"2022-02-15 01:17:00",2810186,3.464667,236.1991,3.269429,0.5634165,4.88,0,2.419333,231.7298,4.803185,0.5999051,3.68,0,-999,0,5.587,88.1,5.623,5.631,3.9,0.398,0,6.809,13.58,4.95,100.8433,3.357,3.359,3.356,100,0,0,0,307.9,182.3,182.3
"2022-02-15 01:18:00",2810187,4.131999,233.6027,5.982437,0.3012463,4.55,0,2.828,232.3331,6.907965,0.3885906,3.47,0,-999,0,5.533,88.5,5.594,5.599,4.054,0.367,0,6.809,13.57,4.638,100.8375,3.359,3.359,3.356,100,0,0,0,307.9,182.3,182.3
"2022-02-15 01:19:00",2810188,3.393333,231.668,3.770422,0.274898,3.84,0,2.476666,228.9339,5.295319,0.4061144,3.23,0,-999,0,5.5,88.7,5.543,5.56,3.787,0.235,0,6.806,13.57,4.138,100.8411,3.356,3.359,3.356,100,0,0,0,307.9,182.3,182.3
"2022-02-15 01:20:00",2810189,3.344666,227.9995,6.1298,0.2207825,3.7,0,2.074667,224.9318,5.14147,0.3155074,2.47,0,-999,0,5.5,89.1,5.512,5.525,3.438,0.22,0,6.793,13.58,3.7,100.8322,3.359,3.359,3.357,100,0,0,0,307.9,182.2,182.3
"2022-02-15 01:21:00",2810190,3.624667,226.3321,3.319142,0.3426732,4.25,0,2.181333,222.1404,5.835219,0.288672,2.81,0,-999,0,5.467,89.2,5.488,5.499,3.504,0.308,0,6.787,13.57,3.888,100.8314,3.359,3.359,3.357,100,0,0,0,307.9,182.3,182.3
"2022-02-15 01:22:00",2810191,3.624,228.6007,5.159242,0.3913873,4.53,0,2.728667,224.1993,4.577172,0.4758413,3.51,0,-999,0,5.427,89.1,5.509,5.521,3.221,0.255,0,6.787,13.58,3.95,100.8283,3.358,3.359,3.357,100,0,0,0,307.9,182.2,182.3
"2022-02-15 01:23:00",2810192,3.794667,237.4584,7.720932,0.6507008,4.88,0,2.588,227.1335,4.378988,0.36091,3.38,0,-999,0,5.4,89.2,5.483,5.497,4.175,0.464,0,6.787,13.57,5.075,100.8334,3.359,3.359,3.357,100,0,0,0,307.9,182.3,182.3
"2022-02-15 01:24:00",2810193,4.195333,235.8051,5.071904,0.6366774,5.18,0,2.778667,232.2546,8.578182,0.4334955,3.5,0,-999,0,5.4,89.4,5.469,5.47,4.5,0.482,0,6.772,13.57,5.2,100.8423,3.357,3.359,3.357,100,0,0,0,307.9,182.3,182.3
"2022-02-15 01:25:00",2810194,3.731333,234.3972,4.11025,0.3870894,4.49,0,2.7,230.0695,4.417857,0.2131353,3.06,0,-999,0,5.4,89.2,5.477,5.483,3.771,0.274,0,6.768,13.57,4.45,100.8367,3.359,3.359,3.357,100,0,0,0,307.9,182.3,182.3
"2022-02-15 01:26:00",2810195,3.494667,230.4666,3.555504,0.2942305,4.08,0,2.645333,236.5348,6.838978,0.4884106,3.71,0,-999,0,5.4,89.4,5.465,5.481,4.087,0.301,0,6.766,13.57,4.763,100.8447,3.357,3.359,3.357,100,0,0,0,307.9,182.3,182.3
"2022-02-15 01:27:00",2810196,3.592667,230.7413,6.553879,0.4611358,4.54,0,2.672667,235.4593,9.234094,0.5394253,3.97,0,-999,0,5.4,89.7,5.4,5.456,3.379,0.193,0,6.766,13.57,3.95,100.8459,3.357,3.359,3.357,100,0,0,0,307.9,182.2,182.3
"2022-02-15 01:28:00",2810197,3.310666,227.7312,3.452963,0.2336512,3.72,0,2.392,225.0524,5.520977,0.1953527,2.68,0,-999,0,5.333,89.9,5.391,5.419,3.25,0.333,0,6.753,13.58,3.825,100.8384,3.359,3.361,3.358,100,0,0,0,307.9,182.3,182.3
"2022-02-15 01:29:00",2810198,3.312667,228.6676,3.238116,0.1743355,3.58,0,2.288667,229.1999,2.560925,0.23534,2.71,0,-999,0,5.3,89.9,5.383,5.411,3.15,0.282,0,6.744,13.57,3.575,100.8356,3.359,3.361,3.359,100,0,0,0,307.9,182.3,182.3
"2022-02-15 01:30:00",2810199,3.191333,226.4084,5.077643,0.2441275,3.62,0,2.154667,231.0645,4.805498,0.3245277,2.72,0,-999,0,5.3,89.8,5.369,5.391,3.296,0.25,0,6.744,13.58,3.7,100.839,3.359,3.359,3.357,100,0,0,0,307.9,182.3,182.3
"2022-02-15 01:31:00",2810200,3.534,229.9353,3.973779,0.2515498,4.12,0,2.110667,225.9364,4.862866,0.237556,2.58,0,-999,0,5.3,90,5.322,5.377,3.55,0.247,0,6.744,13.57,3.95,100.8441,3.359,3.359,3.357,100,0,0,0,307.9,182.3,182.3
"2022-02-15 01:32:00",2810201,3.16,227.7991,2.970459,0.280452,3.61,0,1.968667,224.0004,4.257065,0.2434438,2.7,0,-999,0,5.273,90.1,5.299,5.338,3.125,0.188,0,6.742,13.57,3.513,100.8469,3.359,3.359,3.358,100,0,0,0,307.9,182.2,182.3
"2022-02-15 01:33:00",2810202,3.102,223.9333,2.743572,0.1038717,3.23,0,2.030667,221.3326,3.359319,0.1935448,2.38,0,-999,0,5.2,90.2,5.277,5.32,2.975,0.114,0,6.723,13.57,3.138,100.8474,3.359,3.359,3.358,100,0,0,0,307.9,182.3,182.3
"2022-02-15 01:34:00",2810203,3.389333,221.3338,4.173532,0.392623,4.11,0,2.307333,220.533,5.14742,0.5705725,3.33,0,-999,0,5.2,90.2,5.255,5.283,3.133,0.154,0,6.721,13.58,3.388,100.8537,3.358,3.359,3.357,100,0,0,0,307.9,182.3,182.3
"2022-02-15 01:35:00",2810204,4.062666,220.9995,2.874813,0.3151818,4.99,0,2.963333,218.4044,5.093143,0.4145145,3.86,0,-999,0,5.2,89.9,5.268,5.298,3.804,0.476,0,6.703,13.57,4.513,100.8525,3.359,3.359,3.358,100,0,0,0,307.9,182.2,182.2
"2022-02-15 01:36:00",2810205,4.089333,220.5995,5.147516,0.3460918,4.89,0,2.738,217.8754,6.005904,0.5434973,3.57,0,-999,0,5.2,89.7,5.318,5.343,3.496,0.433,0,6.701,13.57,4.325,100.8495,3.359,3.359,3.357,100,0,0,0,307.9,182.3,182.2
"2022-02-15 01:37:00",2810206,3.518667,224.7348,4.072834,0.3018137,3.86,0,2.615334,221.4005,3.05011,0.4019098,3.34,0,-999,0,5.26,89.9,5.323,5.349,3.529,0.26,0,6.693,13.58,3.888,100.8489,3.359,3.361,3.359,100,0,0,0,307.9,182.2,182.2
"2022-02-15 01:38:00",2810207,4.146,226.4683,4.175815,0.4208373,5.04,0,2.806666,225.3288,6.957823,0.3267143,3.38,0,-999,0,5.3,90.1,5.384,5.398,3.583,0.627,0,6.678,13.58,4.7,100.8521,3.36,3.361,3.359,100,0,0,0,307.9,182.2,182.3
"2022-02-15 01:39:00",2810208,4.099333,230.7413,8.198747,0.337648,4.75,0,2.673333,224.7967,6.225971,0.3292551,3.26,0,-999,0,5.3,90.4,5.387,5.414,4.15,0.561,0,6.669,13.57,5.138,100.8582,3.359,3.361,3.359,100,0,0,0,307.9,182.2,182.2
"2022-02-15 01:40:00",2810209,3.672667,227.6692,4.627364,0.4961648,4.45,0,2.729333,225.3342,4.451514,0.464406,3.6,0,-999,0,5.3,90.7,5.39,5.412,3.817,0.181,0,6.656,13.58,4.075,100.8563,3.358,3.36,3.357,100,0,0,0,307.9,182.2,182.2
"2022-02-15 01:41:00",2810210,3.661334,228.4661,3.242534,0.3943242,4.46,0,2.741333,229.6056,5.066507,0.4699627,3.54,0,-999,0,5.3,90.7,5.39,5.414,3.592,0.244,0,6.656,13.58,4.012,100.8612,3.359,3.36,3.359,100,0,0,0,307.9,182.2,182.2
"2022-02-15 01:42:00",2810211,3.474667,227.2668,3.04316,0.3121937,3.97,0,2.58,227.1314,3.460596,0.4551921,3.58,0,-999,0,5.3,90.9,5.396,5.412,3.542,0.235,0,6.656,13.57,3.95,100.8599,3.359,3.361,3.359,100,0,0,0,307.9,182.3,182.2
"2022-02-15 01:43:00",2810212,3.347333,231.7347,3.355347,0.1971283,3.63,0,2.646667,230.655,6.672074,0.2691633,3.11,0,-999,0,5.3,90.7,5.407,5.43,3.729,0.255,0,6.649,13.58,4.263,100.8518,3.359,3.359,3.357,100,0,0,0,307.9,182.2,182.2
"2022-02-15 01:44:00",2810213,3.311333,227.8656,5.250622,0.3981435,4.19,0,2.129333,228.0705,6.438135,0.3136977,2.66,0,-999,0,5.34,90.7,5.439,5.46,3.421,0.281,0,6.635,13.58,3.763,100.8498,3.359,3.361,3.359,100,0,0,0,307.9,182.2,182.2